Radioactive Concentration measured by Seawater Radiation Monitor near Fukushima Daiichi Nuclear Power Station
Date,Time,Cs137(Bq/L),Cs134(Bq/L),Total β(Bq/L)
2020/06/19,00:00,ND,ND,17
2020/06/19,00:10,ND,ND,16
2020/06/19,00:20,ND,ND,13
2020/06/19,00:30,ND,ND,11
2020/06/19,00:40,ND,ND,12
2020/06/19,00:50,ND,ND,12
2020/06/19,01:00,ND,ND,9.5
2020/06/19,01:10,ND,ND,9.5
2020/06/19,01:20,ND,ND,10
2020/06/19,01:30,ND,ND,13
2020/06/19,01:40,ND,ND,11
2020/06/19,01:50,ND,ND,9.0
2020/06/19,02:00,ND,ND,9.9
2020/06/19,02:10,ND,ND,13
2020/06/19,02:20,ND,ND,10
2020/06/19,02:30,ND,ND,ND
2020/06/19,02:40,ND,ND,ND
2020/06/19,02:50,ND,ND,10
2020/06/19,03:00,ND,ND,11
2020/06/19,03:10,ND,ND,ND
2020/06/19,03:20,ND,ND,11
2020/06/19,03:30,ND,ND,12
2020/06/19,03:40,ND,ND,12
2020/06/19,03:50,ND,ND,8.8
2020/06/19,04:00,ND,ND,ND
2020/06/19,04:10,ND,ND,10
2020/06/19,04:20,ND,ND,11
2020/06/19,04:30,ND,ND,11
2020/06/19,04:40,ND,ND,10
2020/06/19,04:50,ND,ND,12
2020/06/19,05:00,ND,ND,14
2020/06/19,05:10,ND,ND,14
2020/06/19,05:20,ND,ND,13
2020/06/19,05:30,ND,ND,13
2020/06/19,05:40,ND,ND,12
2020/06/19,05:50,ND,ND,13
2020/06/19,06:00,ND,ND,14
2020/06/19,06:10,ND,ND,14
2020/06/19,06:20,ND,ND,14
2020/06/19,06:30,ND,ND,13
2020/06/19,06:40,ND,ND,17
2020/06/19,06:50,ND,ND,19
2020/06/19,07:00,ND,ND,16
2020/06/19,07:10,ND,ND,18
2020/06/19,07:20,ND,ND,19
2020/06/19,07:30,ND,ND,20
2020/06/19,07:40,ND,ND,19
2020/06/19,07:50,0.057,ND,15
2020/06/19,08:00,0.053,ND,16
2020/06/19,08:10,ND,ND,18
2020/06/19,08:20,0.062,ND,16
2020/06/19,08:30,0.058,ND,14
2020/06/19,08:40,ND,ND,15
2020/06/19,08:50,0.048,ND,18
2020/06/19,09:00,ND,ND,16
2020/06/19,09:10,ND,ND,15
2020/06/19,09:20,ND,ND,17
2020/06/19,09:30,ND,ND,19
2020/06/19,09:40,ND,ND,21
2020/06/19,09:50,ND,ND,17
2020/06/19,10:00,ND,ND,18
2020/06/19,10:10,ND,ND,16
2020/06/19,10:20,ND,ND,17
2020/06/19,10:30,ND,ND,14
2020/06/19,10:40,ND,ND,10
2020/06/19,10:50,ND,ND,10
2020/06/19,11:00,ND,ND,9.0
2020/06/19,11:10,ND,ND,ND
2020/06/19,11:20,ND,ND,ND
2020/06/19,11:30,ND,ND,ND
2020/06/19,11:40,ND,ND,ND
2020/06/19,11:50,ND,ND,9.6
2020/06/19,12:00,ND,ND,10
2020/06/19,12:10,ND,ND,14
2020/06/19,12:20,ND,ND,14
2020/06/19,12:30,ND,ND,17
2020/06/19,12:40,ND,ND,18
2020/06/19,12:50,ND,ND,16
2020/06/19,13:00,ND,ND,17
2020/06/19,13:10,ND,ND,14
2020/06/19,13:20,ND,ND,16
2020/06/19,13:30,ND,ND,11
2020/06/19,13:40,ND,ND,13
2020/06/19,13:50,ND,ND,13
2020/06/19,14:00,ND,ND,12
2020/06/19,14:10,ND,ND,14
2020/06/19,14:20,ND,ND,12
2020/06/19,14:30,ND,ND,18
2020/06/19,14:40,ND,ND,15
2020/06/19,14:50,ND,ND,14
2020/06/19,15:00,ND,ND,16
2020/06/19,15:10,ND,ND,16
2020/06/19,15:20,ND,ND,18
2020/06/19,15:30,ND,ND,15
2020/06/19,15:40,ND,ND,17
2020/06/19,15:50,ND,ND,17
2020/06/19,16:00,ND,ND,17
2020/06/19,16:10,ND,ND,16
2020/06/19,16:20,ND,ND,12
2020/06/19,16:30,ND,ND,11
2020/06/19,16:40,ND,ND,12
2020/06/19,16:50,ND,ND,14
2020/06/19,17:00,ND,ND,12
2020/06/19,17:10,ND,ND,12
2020/06/19,17:20,ND,ND,14
2020/06/19,17:30,ND,ND,13
2020/06/19,17:40,ND,ND,10
2020/06/19,17:50,ND,ND,ND
2020/06/19,18:00,ND,ND,9.5
2020/06/19,18:10,ND,ND,ND
2020/06/19,18:20,ND,ND,ND
2020/06/19,18:30,ND,ND,9.9
2020/06/19,18:40,ND,ND,12
2020/06/19,18:50,ND,ND,11
2020/06/19,19:00,ND,ND,9.6
2020/06/19,19:10,ND,ND,10
2020/06/19,19:20,ND,ND,9.7
2020/06/19,19:30,ND,ND,9.7
2020/06/19,19:40,ND,ND,9.5
2020/06/19,19:50,ND,ND,12
2020/06/19,20:00,ND,ND,10
2020/06/19,20:10,ND,ND,9.0
2020/06/19,20:20,ND,ND,14
2020/06/19,20:30,ND,ND,13
2020/06/19,20:40,ND,ND,13
2020/06/19,20:50,ND,ND,13
2020/06/19,21:00,ND,ND,14
2020/06/19,21:10,ND,ND,15
2020/06/19,21:20,ND,ND,15
2020/06/19,21:30,ND,ND,16
2020/06/19,21:40,ND,ND,17
2020/06/19,21:50,ND,ND,17
2020/06/19,22:00,ND,ND,17
2020/06/19,22:10,ND,ND,16
2020/06/19,22:20,ND,ND,14
2020/06/19,22:30,ND,ND,13
2020/06/19,22:40,ND,ND,10
2020/06/19,22:50,ND,ND,12
2020/06/19,23:00,ND,ND,12
2020/06/19,23:10,ND,ND,13
2020/06/19,23:20,ND,ND,14
2020/06/19,23:30,ND,ND,14
2020/06/19,23:40,ND,ND,12
2020/06/19,23:50,ND,ND,11
